Regional Weather Roundup
Issued by NWS Little Rock, AR

Home | Current Version | Previous Version | Graphics & Text | Print | Product List | Glossary On
Versions: 1 2 3 4 5 6 7 8 9 10 11 12 13 14 15 16 17 18 19 20 21 22 23 24 25 26 27 28 29 30 31 32 33 34 35 36 37 38 39 40 41 42 43 44 45 46 47 48 49 50
000
ASUS44 KLZK 051005
RWRLZK

WEATHER ROUNDUP FOR ARKANSAS
NATIONAL WEATHER SERVICE LITTLE ROCK AR
500 AM CDT TUE MAY 05 2015

NOTE: "FAIR" INDICATES FEW OR NO CLOUDS BELOW 12,000 FEET WITH NO
SIGNIFICANT WEATHER AND/OR OBSTRUCTIONS TO VISIBILITY.

ARZ001-003-010-029-051100-
NORTHWEST ARKANSAS

CITY           SKY/WX    TMP DP  RH WIND       PRES   REMARKS
FAYETTEVILLE   CLEAR     51  51 100 CALM      30.13S FOG
FORT SMITH     CLEAR     62  56  80 NE6       30.10R
HARRISON       CLEAR     57  54  89 CALM      30.16S
BENTONVILLE    MOCLDY   N/A N/A N/A E5        30.14R
ROGERS         MOCLDY    61  56  83 E9        30.14S
SILOAM SPGS    CLEAR     57  48  72 E7        30.13S
HIGHFILL       PTCLDY    55  52  89 N3        30.13
$$

ARZ004-005-016-051100-
NORTH CENTRAL ARKANSAS

CITY           SKY/WX    TMP DP  RH WIND       PRES   REMARKS
BATESVILLE     PTCLDY    57  52  82 CALM      30.17R
FLIPPIN        CLEAR     55  54  94 CALM      30.15R
MTN HOME       CLEAR     60  55  83 SE3       30.15S
$$

ARZ040-041-051100-
WEST CENTRAL ARKANSAS

CITY           SKY/WX    TMP DP  RH WIND       PRES   REMARKS
MENA           MOCLDY    70  64  83 SE8       30.12S
MOUNT IDA      CLEAR     68  60  75 VRB6      30.11R
$$

ARZ009-017-025-026-028-051100-
NORTHEAST ARKANSAS

CITY           SKY/WX    TMP DP  RH WIND       PRES   REMARKS
CORNING          N/A     59  54  82 N3        30.17S
JONESBORO      PTCLDY    57  55  93 CALM      30.17S
NEWPORT        CLEAR     61  55  80 CALM      30.17S
WALNUT RIDGE   MOCLDY    61  52  72 CALM      30.16S
BLYTHEVILLE    CLEAR     64  55  72 S7        30.18S
$$

ARZ022-023-033-042-044-051100-
CENTRAL ARKANSAS

CITY           SKY/WX    TMP DP  RH WIND       PRES   REMARKS
LITTLE ROCK    MOCLDY    66  57  72 CALM      30.15S
N LITTLE ROCK    N/A     66  60  80 S3        30.15S
JACKSONVILLE   MOCLDY    61  60  99 NE1       30.15R
SEARCY         CLOUDY    62  58  86 CALM      30.17R
HOT SPRINGS    MOCLDY    68  61  78 VRB3      30.14S
RUSSELLVILLE   PTCLDY    63  59  87 CALM      30.13S
CLINTON        FAIR      55  55 100 CALM      30.18R FOG
$$

ARZ036-051100-
EAST ARKANSAS

CITY           SKY/WX    TMP DP  RH WIND       PRES   REMARKS
WEST MEMPHIS   PTCLDY    66  57  72 S8        30.17S
$$

ARZ050-053-066-070-073-051100-
SOUTHWEST ARKANSAS

CITY           SKY/WX    TMP DP  RH WIND       PRES   REMARKS
ARKADELPHIA    FAIR      63  63 100 CALM      30.14S
CAMDEN         MOCLDY    66  61  82 CALM      30.14S
TEXARKANA      CLEAR     67  64  90 S8        30.10R
EL DORADO      CLOUDY    66  63  90 E6        30.13F
DE QUEEN       MOCLDY    65  62  90 E5        30.09R
$$

ARZ056-057-069-051100-
SOUTHEAST ARKANSAS

CITY           SKY/WX    TMP DP  RH WIND       PRES   REMARKS
PINE BLUFF     CLOUDY    68  62  81 S5        30.16R
STUTTGART      MOCLDY    66  59  77 S6        30.17R
MONTICELLO     CLOUDY    64  62  93 E3        30.16R

$$





USA.gov is the U.S. government's official web portal to all federal, state and local government web resources and services.